{"data":{"norad_id":58140,"intl_designator":"2023-162Y","name":"STARLINK-30780","alt_names":[],"object_type":"PAYLOAD","status":"ACTIVE","operator":null,"country":"US","launch_date":"2023-10-22","launch_site_code":"AFETR","launch_vehicle":null,"mission":null,"orbit_class":"UNKNOWN","rcs_meters":null,"size_class":null,"mass_kg":null,"dimensions":null,"purposes":["comms"],"wikipedia_slug":null,"has_3d_model":false,"image_url":null,"decayed_at":null,"tle_current":{"epoch":"2026-05-25T03:40:07.300128Z","epoch_age_seconds":59019,"freshness":"FRESH","line1":"1 58140U 23162Y   26145.15286227 -.00000628  00000+0 -13289-4 0  9997","line2":"2 58140  43.0068  60.4438 0000802 277.9495  82.1265 15.27583982144002","mean_motion":15.27583982,"eccentricity":8.02e-5,"inclination_deg":43.0068,"raan_deg":60.4438,"arg_perigee_deg":277.9495,"mean_anomaly_deg":82.1265,"bstar":-1.3289e-5,"rev_number":14400,"period_min":94.266502985628,"perigee_km":482.4869063564,"apogee_km":483.58743869367,"semimajor_km":6861.174172525,"source":"CELESTRAK","updated_at":"2026-05-25T13:38:18.535612Z"}}}